TimeCDT,TemperatureF,Dew PointF,Humidity,Sea Level PressureIn,VisibilityMPH,Wind Direction,Wind SpeedMPH,Gust SpeedMPH,PrecipitationIn,Events,Conditions,WindDirDegrees,DateUTC
12:53 AM,72.0,69.1,91,29.71,10.0,Calm,Calm,-,N/A,,Clear,0,2013-08-24 05:53:00
1:53 AM,72.0,70.0,93,29.70,7.0,SSW,4.6,-,N/A,,Partly Cloudy,200,2013-08-24 06:53:00
2:53 AM,71.1,69.1,93,29.70,9.0,Calm,Calm,-,N/A,,Clear,0,2013-08-24 07:53:00
3:04 AM,71.6,69.8,94,30.04,10.0,Calm,Calm,-,N/A,,Scattered Clouds,0,2013-08-24 08:04:00
3:13 AM,71.6,69.8,94,30.04,10.0,Calm,Calm,-,N/A,,Mostly Cloudy,0,2013-08-24 08:13:00
3:40 AM,71.6,69.8,94,30.04,10.0,Calm,Calm,-,N/A,,Scattered Clouds,0,2013-08-24 08:40:00
3:53 AM,73.0,70.0,90,29.72,10.0,NNE,4.6,-,N/A,,Partly Cloudy,20,2013-08-24 08:53:00
4:53 AM,71.1,69.1,93,29.72,9.0,Calm,Calm,-,N/A,,Clear,0,2013-08-24 09:53:00
5:20 AM,71.6,69.8,94,30.06,10.0,Calm,Calm,-,N/A,,Partly Cloudy,0,2013-08-24 10:20:00
5:34 AM,71.6,69.8,94,30.07,2.5,Calm,Calm,-,N/A,,Mostly Cloudy,0,2013-08-24 10:34:00
5:39 AM,71.6,69.8,94,30.07,0.8,Calm,Calm,-,N/A,,Mist,0,2013-08-24 10:39:00
5:53 AM,70.0,69.1,97,29.74,0.5,Calm,Calm,-,N/A,Fog,Fog,0,2013-08-24 10:53:00
6:46 AM,71.6,69.8,94,30.10,1.2,Calm,Calm,-,N/A,,Overcast,0,2013-08-24 11:46:00
6:53 AM,71.1,69.1,93,29.77,0.8,Calm,Calm,-,N/A,,Overcast,0,2013-08-24 11:53:00
7:00 AM,71.6,69.8,94,30.10,2.5,Calm,Calm,-,N/A,,Mostly Cloudy,0,2013-08-24 12:00:00
7:07 AM,71.6,69.8,94,30.10,9.0,East,3.5,-,N/A,,Mostly Cloudy,90,2013-08-24 12:07:00
7:38 AM,71.6,71.6,100,30.12,1.8,East,3.5,-,N/A,,Overcast,80,2013-08-24 12:38:00
7:53 AM,73.0,71.1,93,29.79,0.8,SE,3.5,-,N/A,,Overcast,130,2013-08-24 12:53:00
8:28 AM,73.4,71.6,94,30.12,2.0,Calm,Calm,-,N/A,,Overcast,0,2013-08-24 13:28:00
8:36 AM,73.4,71.6,94,30.12,9.0,Calm,Calm,-,N/A,,Overcast,0,2013-08-24 13:36:00
8:53 AM,73.9,72.0,93,29.79,10.0,Calm,Calm,-,N/A,,Overcast,0,2013-08-24 13:53:00
9:27 AM,75.2,71.6,89,30.13,10.0,Calm,Calm,-,N/A,,Scattered Clouds,0,2013-08-24 14:27:00
9:53 AM,82.0,72.0,71,29.80,10.0,Calm,Calm,-,N/A,,Clear,0,2013-08-24 14:53:00
10:53 AM,84.0,71.1,65,29.80,10.0,East,4.6,-,N/A,,Clear,100,2013-08-24 15:53:00
11:53 AM,87.1,71.1,59,29.79,10.0,Calm,Calm,-,N/A,,Mostly Cloudy,0,2013-08-24 16:53:00
12:53 PM,86.0,71.1,61,29.79,10.0,Variable,3.5,-,N/A,,Clear,0,2013-08-24 17:53:00
1:53 PM,89.1,71.1,55,29.78,10.0,ENE,4.6,-,N/A,,Clear,70,2013-08-24 18:53:00
2:53 PM,90.0,71.1,54,29.75,10.0,ESE,5.8,-,N/A,,Clear,110,2013-08-24 19:53:00
3:53 PM,89.1,71.1,55,29.75,10.0,East,5.8,-,N/A,,Partly Cloudy,80,2013-08-24 20:53:00
4:53 PM,87.1,72.0,61,29.75,10.0,ENE,9.2,-,N/A,,Scattered Clouds,70,2013-08-24 21:53:00
5:43 PM,86.0,73.4,66,30.08,10.0,NNE,5.8,-,N/A,Thunderstorm,Thunderstorm,30,2013-08-24 22:43:00
5:53 PM,84.9,73.0,67,29.75,10.0,NNE,5.8,-,N/A,,Clear,30,2013-08-24 22:53:00
6:36 PM,84.2,73.4,70,30.08,10.0,ENE,6.9,-,N/A,Thunderstorm,Thunderstorm,60,2013-08-24 23:36:00
6:53 PM,84.0,75.0,74,29.76,10.0,Calm,Calm,-,N/A,Thunderstorm,Thunderstorm,0,2013-08-24 23:53:00
7:06 PM,82.4,75.2,79,30.09,10.0,East,3.5,-,N/A,,Clear,90,2013-08-25 00:06:00
7:27 PM,82.4,75.2,79,30.10,10.0,Calm,Calm,-,N/A,Thunderstorm,Thunderstorm,0,2013-08-25 00:27:00
7:43 PM,80.6,75.2,84,30.11,10.0,Calm,Calm,-,N/A,,Partly Cloudy,0,2013-08-25 00:43:00
7:53 PM,82.0,73.9,76,29.78,10.0,Calm,Calm,-,N/A,,Clear,0,2013-08-25 00:53:00
8:53 PM,78.1,73.0,84,29.79,10.0,Calm,Calm,-,N/A,,Clear,0,2013-08-25 01:53:00
9:53 PM,79.0,73.0,82,29.82,10.0,NE,5.8,-,N/A,,Mostly Cloudy,40,2013-08-25 02:53:00
10:08 PM,80.6,73.4,79,30.16,10.0,ENE,10.4,17.3,N/A,,Overcast,60,2013-08-25 03:08:00
10:22 PM,78.8,73.4,83,30.17,9.0,East,15.0,24.2,0.02,Rain,Light Rain,80,2013-08-25 03:22:00
10:32 PM,73.4,73.4,100,30.19,2.0,ESE,24.2,33.4,0.14,Rain-Thunderstorm,Heavy Thunderstorms and Rain,110,2013-08-25 03:32:00
10:39 PM,73.4,71.6,94,30.20,1.5,ESE,20.7,33.4,0.22,Rain-Thunderstorm,Heavy Thunderstorms and Rain,110,2013-08-25 03:39:00
10:44 PM,73.4,69.8,88,30.20,2.0,ESE,15.0,31.1,0.28,Rain-Thunderstorm,Heavy Thunderstorms and Rain,120,2013-08-25 03:44:00
10:51 PM,71.6,69.8,94,30.20,1.8,ESE,17.3,26.5,0.39,Rain-Thunderstorm,Heavy Thunderstorms and Rain,120,2013-08-25 03:51:00
10:53 PM,72.0,69.1,91,29.87,1.8,ESE,16.1,25.3,0.42,Rain-Thunderstorm,Heavy Thunderstorms and Rain,120,2013-08-25 03:53:00
11:03 PM,71.6,69.8,94,30.20,3.0,SE,9.2,19.6,0.06,Rain-Thunderstorm,Thunderstorms and Rain,140,2013-08-25 04:03:00
11:13 PM,71.6,69.8,94,30.20,6.0,Variable,3.5,-,0.08,Rain,Light Rain,0,2013-08-25 04:13:00
11:53 PM,72.0,69.1,91,29.85,10.0,Calm,Calm,-,0.12,,Mostly Cloudy,0,2013-08-25 04:53:00